Погода в Иркутске

Погода в Иркутске : погода сейчас, прогноз погоды и архив. Всё, что Вы хотите узнать о погоде в Иркутске!

Поиск расширенной информации на нашем сайте:

Полезная информация: ТехноПоинт Иркутск

Другие новости

Новости СМИ2

Главная страница сайта

Новости сайта

03.07.2017

Напоминаем, что на нашем специализированном сайте Метеоцентр.Азия вы можете получить высокодетализированные автоматические прогнозы погоды по пунктам России, СНГ и мира в авиационном формате (включающие направление и скорость ветра, видимость, явления погоды, количество и форму облачности, нижнюю и верхнюю границу облачности).

Рекомендуем: Комплексное бухгалтерское обслуживание

Погода в Иркутске - сегодня

Время (UTC), дата Ветер
(°,м/с) 
Видим.   Явления Облачность Т
(°С)
Тd
(°С)
f(%) Тe
(°С)
Pmin
(гПа)
dP
(гПа)
Po
(мм)
O2
(г/м3)
Тmin Tmax R s Состояние
почвы
21 19.07.17 130 (ЮВ) 20000 м    9/0 средняя, верхняя 
[Ac cast|Ci sp]
+14.3 +12.8 91 +21  1008.6  -0.5  716  271           
00 20.07.17 150 (ЮВ) 20000 м    10/8 1000 м средняя, верхняя 
[Sc diur, vesp|Ac trans|Ci fib]
+15.5 +11.9 79 +21  1008.6  -0.3  716  271  +14.1        влажная 
03 20.07.17 140 (ЮВ) 20000 м    9/0 средняя 
[Ac cuf]
+19.3 +11.7 61 +25  1007  -0.9  715  267           
06 20.07.17 140 (ЮВ) 20000 м    9/0 верхняя 
[Ci sp]
+24.6 +11.7 44 +29  1003.7  -2.2  714  262           
09 20.07.17 170 (Ю) 20000 м    10/9 600 м кучево-дожд., верхняя 
[Cb cap|Ci ing]
+22.7 +11 48 +26  1003.5  -0.5  713  263           
12 20.07.17 200 (Ю) 1{10}  20000 м  гроза, ливневой дождь  10/10 600 м кучево-дожд. 
[Cb cap]
+17.6 +14.9 84 +29  1005.2  0.8  714  267    +25.7  0.4     
15 20.07.17 200 (Ю) н/о  в посл. час ливневой дождь{гроза}  10/8 600 м кучево-дожд., средняя 
[Cb cap|Ac cuf]
+16.5 +14.7 89 +26  1008.6  716  269           
18 20.07.17 тихо ()   н/о  слаб. ливневой дождь{гроза}  10/9 600 м кучево-дожд., средняя 
[Cb cap|Ac und]
+14.9 +14.2 96 +23  1009.9  717  271           
21 20.07.17 тихо ()   20000 м  {ливн. осадки}  1/0 средняя 
[Ac trans]
+13.5 +12.9 96 +20  1010.7  0.4  717  273           
00 21.07.17 200 (Ю) 20000 м  {ливн. осадки}  10/0 средняя 
[Ac und]
+16.8 +14.1 84 +26  1010.9  0.9  718  270  +13.4      влажная 
03 21.07.17 280 (З) 20000 м    4/4 1000 м 
[Cu hum]
+22.5 +10.8 48 +26  1010.3  0.3  718  265           
06 21.07.17 110 (В) 20000 м    6/3 1000 м средняя 
[Cu med, cong|Ac cast]
+24.2 +10.6 42 +27  1009.2  -0.8  718  264           
09 21.07.17 290 (З) 20000 м    8/3 600 м кучево-дожд., средняя, верхняя 
[Cb cap|Ac cuf|Ci ing]
+24.3 +10.4 42 +27  1009.1  718  264           
12 21.07.17 320 (СЗ) 20000 м    9/5 600 м кучево-дожд., верхняя 
[Cb cap|Ci ing]
+21.9 +10.6 49 +25  1010.6  0.9  718  266    +25.1       
15 21.07.17 290 (З) н/о    3/0 средняя 
[Ac cuf]
+17.2 +11.4 69 +23  1012.6  1.2  719  270           
18 21.07.17 тихо ()   н/о    6/0 средняя 
[Ac trans]
+15.6 +12.1 80 +21  1013.3  0.3  719  272           
21 21.07.17 тихо ()   20000 м    8/4 600 м верхняя 
[Sc|Cc]
+12.7 +11.6 93 +17  1014.8  0.9  720  275           
00 22.07.17 270 (З) 20000 м    10/0 верхняя 
[Cs]
+16.7 +12.6 77 +24  1014.5  0.5  720  271  +12.6        сухая 
03 22.07.17 280 (З) 20000 м    6/4 1000 м верхняя 
[Cu med, cong|Ci fib]
+21.1 +12.7 59 +27  1013.2  -0.5  720  267           
06 22.07.17 010 (С) 20000 м    6/6 1000 м 
[Cu med, cong]
+23.3 +11.6 48 +28  1011.5  -1.3  719  265           
09 22.07.17 330 (СЗ) 20000 м    6/4 600 м кучево-дожд., верхняя 
[Cb cap|Ci sp]
+23.3 +10.1 43 +25  1010.8  -0.6  719  265           
12 22.07.17 050 (СВ) 20000 м    8/5 600 м кучево-дожд., средняя 
[Cb cap|Ac As]
+21.7 +13 58 +28  1011.1  0.1  719  266    +25.5       
15 22.07.17 тихо ()   н/о    1/1 600 м кучево-дожд. 
[Cb cap]
+16.8 +13.4 80 +24  1012.8  0.7  719  270           
18 22.07.17 050 (СВ) н/о    ясно 
+14.7 +13 90 +21  1013.8  0.6  720  272           
21 22.07.17 360 (С) 20000 м    10/10 600 м кучево-дожд. 
[Cb cap]
+13.2 +11.4 89 +18  1014.7  0.5  720  275           
Время (UTC), дата Ветер
(°,м/с) 
Видим.   Явления Облачность Т
(°С)
Тd
(°С)
f(%) Тe
(°С)
Pmin
(гПа)
dP
(гПа)
Po
(мм)
O2
(г/м3)
Тmin Tmax R s Состояние
почвы

Для получения пояснительной информации подведите курсор к названию столбца.

ПОГОДА в Иркутске - архив

Всё, что Вы хотите узнать о погоде в Иркутске - удобно и подробно!

Выберите нужную дату (начиная с 1 января 2015* года) и нажмите кнопку "Найти".
Будут отображены архивные сводки погоды по пункту Иркутск, начиная с указанной даты.


Отображать данные в формате CSV (для использования в таблицах Excel)


Внимание! Наш архив погоды предназначен исключительно для личного некоммерческого использования в познавательных целях. Если Вам необходимы официальные справки о состоянии погоды (для производственных, юридических, коммерческих и т.п. целей), обращайтесь в органы Росгидромета.

*Примечание: данная дата относится к архиву по метеостанциям СССР (Россия, СНГ, Балтия).
Архив по метеостанциям Зарубежной Европы и Азии (кроме Китая) хранится 10 дней, по другим регионам земного шара (Китай, Африка, Америка, Австралия, Океания) - 1 день.

Иркутск - район местоположения метеостанции


Название, широта, долгота, высота метеостанции:
Иркутск (город) 52.3°ш. 104.3°д. 485 м над ур. моря [Российская Федерация]

Дополнительная информация

В oтличие oт бoльшинства пoгoдных сайтoв мы публикуем пoдрoбную метеoинфoрмацию в детальнoм прoфессиoнальнoм фoрмате.

Характеристики температуры и влажнoсти вoздуха измеряются на высoте 2 м в тени вдали oт зданий и деревьев.
Скoрoсть ветра измеряется на высoте 10 м (на урoвне рoста челoвека скoрoсть ветра ниже в 1.5-2 раза). Если метеoстанция нахoдится в гoрoде или в лесу, тo скoрoсть ветра занижена на 2-4 м/с пo сравнению с oткрытым местoм. Скoрoсть ветра над акватoриями крупных рек и oзёр, а также на вершинах хoлмoв на 2-5 м/с выше, чем в oбычных услoвиях.
Атмoсфернoе давление в разных тoчках местнoсти мoжет значительнo oтличаться oт давления на метеoстанции, в зависимoсти oт услoвий рельефа (при пoдъёме на 10 м давление пoнижается примернo на 1 мм рт.ст.).